owner,sensor,date,latitude,longitude,vertical_datum,wind_speed,wind_to_direction,wind_speed_of_gust,qcFlag 
TCOON,ioos:station:TCOON:003:1,2008-06-01T00:00:00Z,26.8015,-97.4706,0.0,9.2,141.0,10.6,'11111222,11111222,11111222' 
TCOON,ioos:station:TCOON:003:1,2008-06-01T01:00:00Z,26.8015,-97.4706,0.0,10.2,150.0,11.8,'11111222,11111222,11111222' 
TCOON,ioos:station:TCOON:003:1,2008-06-01T02:00:00Z,26.8015,-97.4706,0.0,9.2,151.0,10.5,'11111222,11111222,11111222' 
TCOON,ioos:station:TCOON:003:1,2008-06-01T03:00:00Z,26.8015,-97.4706,0.0,8.5,147.0,9.7,'11111222,11111222,11111222' 
TCOON,ioos:station:TCOON:003:1,2008-06-01T04:00:00Z,26.8015,-97.4706,0.0,9.5,152.0,10.9,'11111222,11111222,11111222' 
TCOON,ioos:station:TCOON:003:1,2008-06-01T05:00:00Z,26.8015,-97.4706,0.0,8.6,164.0,10.0,'11111222,11111222,11111222' 
TCOON,ioos:station:TCOON:003:1,2008-06-01T06:00:00Z,26.8015,-97.4706,0.0,10.1,170.0,11.3,'11111222,11111222,11111222' 
TCOON,ioos:station:TCOON:003:1,2008-06-01T07:00:00Z,26.8015,-97.4706,0.0,9.0,171.0,10.6,'11111222,11111222,11111222' 
TCOON,ioos:station:TCOON:003:1,2008-06-01T08:00:00Z,26.8015,-97.4706,0.0,8.7,163.0,11.2,'11111222,11111222,11111222' 
TCOON,ioos:station:TCOON:003:1,2008-06-01T09:00:00Z,26.8015,-97.4706,0.0,7.3,164.0,9.0,'11111222,11111222,11111222' 
TCOON,ioos:station:TCOON:003:1,2008-06-01T10:00:00Z,26.8015,-97.4706,0.0,8.4,168.0,9.5,'11111222,11111222,11111222' 
TCOON,ioos:station:TCOON:003:1,2008-06-01T11:00:00Z,26.8015,-97.4706,0.0,8.0,171.0,9.2,'11111222,11111222,11111222' 
TCOON,ioos:station:TCOON:003:1,2008-06-01T12:00:00Z,26.8015,-97.4706,0.0,5.7,192.0,6.5,'11111222,11111222,11111222' 
TCOON,ioos:station:TCOON:003:1,2008-06-01T13:00:00Z,26.8015,-97.4706,0.0,7.1,172.0,8.4,'11111222,11111222,11111222' 
TCOON,ioos:station:TCOON:003:1,2008-06-01T14:00:00Z,26.8015,-97.4706,0.0,7.3,182.0,8.3,'11111222,11111222,11111222' 
TCOON,ioos:station:TCOON:003:1,2008-06-01T15:00:00Z,26.8015,-97.4706,0.0,7.2,175.0,8.0,'11111222,11111222,11111222' 
TCOON,ioos:station:TCOON:003:1,2008-06-01T16:00:00Z,26.8015,-97.4706,0.0,7.4,168.0,8.3,'11111222,11111222,11111222' 
TCOON,ioos:station:TCOON:003:1,2008-06-01T17:00:00Z,26.8015,-97.4706,0.0,7.0,175.0,7.9,'11111222,11111222,11111222' 
TCOON,ioos:station:TCOON:003:1,2008-06-01T18:00:00Z,26.8015,-97.4706,0.0,7.7,161.0,9.2,'11111222,11111222,11111222' 
TCOON,ioos:station:TCOON:003:1,2008-06-01T19:00:00Z,26.8015,-97.4706,0.0,8.5,144.0,9.6,'11111222,11111222,11111222' 
TCOON,ioos:station:TCOON:003:1,2008-06-01T20:00:00Z,26.8015,-97.4706,0.0,9.5,140.0,13.0,'11111222,11111222,11111222' 
TCOON,ioos:station:TCOON:003:1,2008-06-01T21:00:00Z,26.8015,-97.4706,0.0,9.7,127.0,12.3,'11111222,11111222,11111222' 
TCOON,ioos:station:TCOON:003:1,2008-06-01T22:00:00Z,26.8015,-97.4706,0.0,9.7,135.0,11.5,'11111222,11111222,11111222' 
TCOON,ioos:station:TCOON:003:1,2008-06-01T23:00:00Z,26.8015,-97.4706,0.0,9.0,133.0,10.6,'11111222,11111222,11111222' 
TCOON,ioos:station:TCOON:003:1,2008-06-02T00:00:00Z,26.8015,-97.4706,0.0,9.1,135.0,10.6,'11111222,11111222,11111222' 
TCOON,ioos:station:TCOON:003:1,2008-06-02T01:00:00Z,26.8015,-97.4706,0.0,9.0,151.0,10.8,'11111222,11111222,11111222' 
TCOON,ioos:station:TCOON:003:1,2008-06-02T02:00:00Z,26.8015,-97.4706,0.0,9.4,154.0,10.5,'11111222,11111222,11111222' 
TCOON,ioos:station:TCOON:003:1,2008-06-02T03:00:00Z,26.8015,-97.4706,0.0,8.7,150.0,10.1,'11111222,11111222,11111222' 
TCOON,ioos:station:TCOON:003:1,2008-06-02T04:00:00Z,26.8015,-97.4706,0.0,9.6,160.0,11.5,'11111222,11111222,11111222' 
TCOON,ioos:station:TCOON:003:1,2008-06-02T05:00:00Z,26.8015,-97.4706,0.0,8.7,155.0,10.2,'11111222,11111222,11111222' 
TCOON,ioos:station:TCOON:003:1,2008-06-02T06:00:00Z,26.8015,-97.4706,0.0,8.0,163.0,9.0,'11111222,11111222,11111222' 
TCOON,ioos:station:TCOON:003:1,2008-06-02T07:00:00Z,26.8015,-97.4706,0.0,9.2,166.0,10.5,'11111222,11111222,11111222' 
TCOON,ioos:station:TCOON:003:1,2008-06-02T08:00:00Z,26.8015,-97.4706,0.0,7.4,195.0,9.0,'11111222,11111222,11111222' 
TCOON,ioos:station:TCOON:003:1,2008-06-02T09:00:00Z,26.8015,-97.4706,0.0,6.5,200.0,7.5,'11111222,11111222,11111222' 
TCOON,ioos:station:TCOON:003:1,2008-06-02T10:00:00Z,26.8015,-97.4706,0.0,5.4,198.0,6.3,'11111222,11111222,11111222' 
TCOON,ioos:station:TCOON:003:1,2008-06-02T11:00:00Z,26.8015,-97.4706,0.0,4.9,196.0,5.6,'11111222,11111222,11111222' 
TCOON,ioos:station:TCOON:003:1,2008-06-02T12:00:00Z,26.8015,-97.4706,0.0,6.0,165.0,7.3,'11111222,11111222,11111222' 
TCOON,ioos:station:TCOON:003:1,2008-06-02T13:00:00Z,26.8015,-97.4706,0.0,7.2,167.0,8.2,'11111222,11111222,11111222' 
TCOON,ioos:station:TCOON:003:1,2008-06-02T14:00:00Z,26.8015,-97.4706,0.0,7.8,175.0,8.8,'11111222,11111222,11111222' 
TCOON,ioos:station:TCOON:003:1,2008-06-02T15:00:00Z,26.8015,-97.4706,0.0,7.5,179.0,8.5,'11111222,11111222,11111222' 
TCOON,ioos:station:TCOON:003:1,2008-06-02T16:00:00Z,26.8015,-97.4706,0.0,8.2,178.0,9.2,'11111222,11111222,11111222' 
TCOON,ioos:station:TCOON:003:1,2008-06-02T17:00:00Z,26.8015,-97.4706,0.0,8.4,165.0,9.4,'11111222,11111222,11111222' 
TCOON,ioos:station:TCOON:003:1,2008-06-02T18:00:00Z,26.8015,-97.4706,0.0,9.2,145.0,10.2,'11111222,11111222,11111222' 
TCOON,ioos:station:TCOON:003:1,2008-06-02T19:00:00Z,26.8015,-97.4706,0.0,10.7,145.0,12.8,'11111222,11111222,11111222' 
TCOON,ioos:station:TCOON:003:1,2008-06-02T20:00:00Z,26.8015,-97.4706,0.0,10.2,146.0,11.7,'11111222,11111222,11111222' 
TCOON,ioos:station:TCOON:003:1,2008-06-02T21:00:00Z,26.8015,-97.4706,0.0,10.0,146.0,12.2,'11111222,11111222,11111222' 
TCOON,ioos:station:TCOON:003:1,2008-06-02T22:00:00Z,26.8015,-97.4706,0.0,9.3,151.0,11.2,'11111222,11111222,11111222' 
TCOON,ioos:station:TCOON:003:1,2008-06-02T23:00:00Z,26.8015,-97.4706,0.0,9.5,148.0,11.6,'11111222,11111222,11111222' 
TCOON,ioos:station:TCOON:003:1,2008-06-03T00:00:00Z,26.8015,-97.4706,0.0,10.0,151.0,11.9,'11111222,11111222,11111222' 
TCOON,ioos:station:TCOON:003:1,2008-06-03T01:00:00Z,26.8015,-97.4706,0.0,10.0,156.0,12.5,'11111222,11111222,11111222' 
TCOON,ioos:station:TCOON:003:1,2008-06-03T02:00:00Z,26.8015,-97.4706,0.0,10.4,157.0,12.2,'11111222,11111222,11111222' 
TCOON,ioos:station:TCOON:003:1,2008-06-03T03:00:00Z,26.8015,-97.4706,0.0,9.8,155.0,11.1,'11111222,11111222,11111222' 
TCOON,ioos:station:TCOON:003:1,2008-06-03T04:00:00Z,26.8015,-97.4706,0.0,10.3,164.0,11.6,'11111222,11111222,11111222' 
TCOON,ioos:station:TCOON:003:1,2008-06-03T05:00:00Z,26.8015,-97.4706,0.0,10.2,169.0,11.6,'11111222,11111222,11111222' 
TCOON,ioos:station:TCOON:003:1,2008-06-03T06:00:00Z,26.8015,-97.4706,0.0,9.7,174.0,11.9,'11111222,11111222,11111222' 
TCOON,ioos:station:TCOON:003:1,2008-06-03T07:00:00Z,26.8015,-97.4706,0.0,9.7,168.0,11.9,'11111222,11111222,11111222' 
TCOON,ioos:station:TCOON:003:1,2008-06-03T08:00:00Z,26.8015,-97.4706,0.0,6.7,198.0,7.8,'11111222,11111222,11111222' 
TCOON,ioos:station:TCOON:003:1,2008-06-03T09:00:00Z,26.8015,-97.4706,0.0,6.2,197.0,7.4,'11111222,11111222,11111222' 
TCOON,ioos:station:TCOON:003:1,2008-06-03T10:00:00Z,26.8015,-97.4706,0.0,8.3,189.0,9.7,'11111222,11111222,11111222' 
TCOON,ioos:station:TCOON:003:1,2008-06-03T11:00:00Z,26.8015,-97.4706,0.0,7.2,191.0,8.3,'11111222,11111222,11111222' 
TCOON,ioos:station:TCOON:003:1,2008-06-03T12:00:00Z,26.8015,-97.4706,0.0,7.4,186.0,9.1,'11111222,11111222,11111222' 
TCOON,ioos:station:TCOON:003:1,2008-06-03T13:00:00Z,26.8015,-97.4706,0.0,8.9,180.0,10.4,'11111222,11111222,11111222' 
TCOON,ioos:station:TCOON:003:1,2008-06-03T14:00:00Z,26.8015,-97.4706,0.0,9.7,176.0,11.2,'11111222,11111222,11111222' 
TCOON,ioos:station:TCOON:003:1,2008-06-03T15:00:00Z,26.8015,-97.4706,0.0,11.0,165.0,12.5,'11111222,11111222,11111222' 
TCOON,ioos:station:TCOON:003:1,2008-06-03T16:00:00Z,26.8015,-97.4706,0.0,10.4,167.0,12.1,'11111222,11111222,11111222' 
TCOON,ioos:station:TCOON:003:1,2008-06-03T17:00:00Z,26.8015,-97.4706,0.0,11.2,169.0,12.6,'11111222,11111222,11111222' 
TCOON,ioos:station:TCOON:003:1,2008-06-03T18:00:00Z,26.8015,-97.4706,0.0,10.1,168.0,12.8,'11111222,11111222,11111222' 
TCOON,ioos:station:TCOON:003:1,2008-06-03T19:00:00Z,26.8015,-97.4706,0.0,10.3,160.0,12.0,'11111222,11111222,11111222' 
TCOON,ioos:station:TCOON:003:1,2008-06-03T20:00:00Z,26.8015,-97.4706,0.0,10.0,158.0,12.4,'11111222,11111222,11111222' 
TCOON,ioos:station:TCOON:003:1,2008-06-03T21:00:00Z,26.8015,-97.4706,0.0,11.9,158.0,14.3,'11111222,11111222,11111222' 
TCOON,ioos:station:TCOON:003:1,2008-06-03T22:00:00Z,26.8015,-97.4706,0.0,11.3,162.0,13.5,'11111222,11111222,11111222' 
TCOON,ioos:station:TCOON:003:1,2008-06-03T23:00:00Z,26.8015,-97.4706,0.0,10.6,158.0,12.7,'11111222,11111222,11111222' 
TCOON,ioos:station:TCOON:003:1,2008-06-04T00:00:00Z,26.8015,-97.4706,0.0,10.9,159.0,12.6,'11111222,11111222,11111222' 
TCOON,ioos:station:TCOON:003:1,2008-06-04T01:00:00Z,26.8015,-97.4706,0.0,10.9,160.0,12.8,'11111222,11111222,11111222' 
TCOON,ioos:station:TCOON:003:1,2008-06-04T02:00:00Z,26.8015,-97.4706,0.0,10.6,158.0,13.7,'11111222,11111222,11111222' 
TCOON,ioos:station:TCOON:003:1,2008-06-04T03:00:00Z,26.8015,-97.4706,0.0,10.6,159.0,12.2,'11111222,11111222,11111222' 
TCOON,ioos:station:TCOON:003:1,2008-06-04T04:00:00Z,26.8015,-97.4706,0.0,11.2,164.0,13.3,'11111222,11111222,11111222' 
TCOON,ioos:station:TCOON:003:1,2008-06-04T05:00:00Z,26.8015,-97.4706,0.0,12.4,167.0,14.5,'11111222,11111222,11111222' 
TCOON,ioos:station:TCOON:003:1,2008-06-04T06:00:00Z,26.8015,-97.4706,0.0,11.3,170.0,13.9,'11111222,11111222,11111222' 
TCOON,ioos:station:TCOON:003:1,2008-06-04T07:00:00Z,26.8015,-97.4706,0.0,13.3,168.0,15.4,'11111222,11111222,11111222' 
TCOON,ioos:station:TCOON:003:1,2008-06-04T08:00:00Z,26.8015,-97.4706,0.0,12.8,182.0,15.0,'11111222,11111222,11111222' 
TCOON,ioos:station:TCOON:003:1,2008-06-04T09:00:00Z,26.8015,-97.4706,0.0,9.3,193.0,11.6,'11111222,11111222,11111222' 
TCOON,ioos:station:TCOON:003:1,2008-06-04T10:00:00Z,26.8015,-97.4706,0.0,8.7,187.0,10.5,'11111222,11111222,11111222' 
TCOON,ioos:station:TCOON:003:1,2008-06-04T11:00:00Z,26.8015,-97.4706,0.0,10.5,178.0,12.8,'11111222,11111222,11111222' 
TCOON,ioos:station:TCOON:003:1,2008-06-04T12:00:00Z,26.8015,-97.4706,0.0,10.8,176.0,13.0,'11111222,11111222,11111222' 
TCOON,ioos:station:TCOON:003:1,2008-06-04T13:00:00Z,26.8015,-97.4706,0.0,10.8,174.0,12.1,'11111222,11111222,11111222' 
TCOON,ioos:station:TCOON:003:1,2008-06-04T14:00:00Z,26.8015,-97.4706,0.0,10.8,169.0,13.0,'11111222,11111222,11111222' 
TCOON,ioos:station:TCOON:003:1,2008-06-04T15:00:00Z,26.8015,-97.4706,0.0,12.5,166.0,14.4,'11111222,11111222,11111222' 
TCOON,ioos:station:TCOON:003:1,2008-06-04T16:00:00Z,26.8015,-97.4706,0.0,11.1,169.0,12.9,'11111222,11111222,11111222' 
TCOON,ioos:station:TCOON:003:1,2008-06-04T17:00:00Z,26.8015,-97.4706,0.0,13.4,167.0,15.3,'11111222,11111222,11111222' 
TCOON,ioos:station:TCOON:003:1,2008-06-04T18:00:00Z,26.8015,-97.4706,0.0,11.5,166.0,13.6,'11111222,11111222,11111222' 
TCOON,ioos:station:TCOON:003:1,2008-06-04T19:00:00Z,26.8015,-97.4706,0.0,12.9,165.0,14.6,'11111222,11111222,11111222' 
TCOON,ioos:station:TCOON:003:1,2008-06-04T20:00:00Z,26.8015,-97.4706,0.0,12.4,166.0,14.8,'11111222,11111222,11111222' 
TCOON,ioos:station:TCOON:003:1,2008-06-04T21:00:00Z,26.8015,-97.4706,0.0,13.8,168.0,16.3,'11111222,11111222,11111222' 
TCOON,ioos:station:TCOON:003:1,2008-06-04T22:00:00Z,26.8015,-97.4706,0.0,13.1,161.0,14.9,'11111222,11111222,11111222' 
TCOON,ioos:station:TCOON:003:1,2008-06-04T23:00:00Z,26.8015,-97.4706,0.0,12.4,160.0,14.0,'11111222,11111222,11111222' 
TCOON,ioos:station:TCOON:003:1,2008-06-05T00:00:00Z,26.8015,-97.4706,0.0,12.3,160.0,14.7,'11111222,11111222,11111222' 
TCOON,ioos:station:TCOON:003:1,2008-06-05T01:00:00Z,26.8015,-97.4706,0.0,12.9,159.0,15.2,'11111222,11111222,11111222' 
TCOON,ioos:station:TCOON:003:1,2008-06-05T02:00:00Z,26.8015,-97.4706,0.0,12.3,160.0,14.1,'11111222,11111222,11111222' 
TCOON,ioos:station:TCOON:003:1,2008-06-05T03:00:00Z,26.8015,-97.4706,0.0,11.5,161.0,13.7,'11111222,11111222,11111222' 
TCOON,ioos:station:TCOON:003:1,2008-06-05T04:00:00Z,26.8015,-97.4706,0.0,11.5,165.0,14.1,'11111222,11111222,11111222' 
TCOON,ioos:station:TCOON:003:1,2008-06-05T05:00:00Z,26.8015,-97.4706,0.0,12.7,167.0,15.4,'11111222,11111222,11111222' 
TCOON,ioos:station:TCOON:003:1,2008-06-05T06:00:00Z,26.8015,-97.4706,0.0,12.9,169.0,15.4,'11111222,11111222,11111222' 
TCOON,ioos:station:TCOON:003:1,2008-06-05T07:00:00Z,26.8015,-97.4706,0.0,13.8,175.0,15.8,'11111222,11111222,11111222' 
TCOON,ioos:station:TCOON:003:1,2008-06-05T08:00:00Z,26.8015,-97.4706,0.0,10.5,178.0,12.3,'11111222,11111222,11111222' 
TCOON,ioos:station:TCOON:003:1,2008-06-05T09:00:00Z,26.8015,-97.4706,0.0,12.2,165.0,14.1,'11111222,11111222,11111222' 
TCOON,ioos:station:TCOON:003:1,2008-06-05T10:00:00Z,26.8015,-97.4706,0.0,12.4,165.0,14.7,'11111222,11111222,11111222' 
TCOON,ioos:station:TCOON:003:1,2008-06-05T11:00:00Z,26.8015,-97.4706,0.0,13.1,164.0,15.4,'11111222,11111222,11111222' 
TCOON,ioos:station:TCOON:003:1,2008-06-05T12:00:00Z,26.8015,-97.4706,0.0,13.1,164.0,16.3,'11111222,11111222,11111222' 
TCOON,ioos:station:TCOON:003:1,2008-06-05T13:00:00Z,26.8015,-97.4706,0.0,12.1,164.0,14.3,'11111222,11111222,11111222' 
TCOON,ioos:station:TCOON:003:1,2008-06-05T14:00:00Z,26.8015,-97.4706,0.0,12.6,167.0,16.2,'11111222,11111222,11111222' 
TCOON,ioos:station:TCOON:003:1,2008-06-05T15:00:00Z,26.8015,-97.4706,0.0,14.4,164.0,17.1,'11111222,11111222,11111222' 
TCOON,ioos:station:TCOON:003:1,2008-06-05T16:00:00Z,26.8015,-97.4706,0.0,15.7,167.0,18.7,'11111222,11111222,11111222' 
TCOON,ioos:station:TCOON:003:1,2008-06-05T17:00:00Z,26.8015,-97.4706,0.0,14.1,166.0,17.2,'11111222,11111222,11111222' 
TCOON,ioos:station:TCOON:003:1,2008-06-05T18:00:00Z,26.8015,-97.4706,0.0,13.1,165.0,15.6,'11111222,11111222,11111222' 
TCOON,ioos:station:TCOON:003:1,2008-06-05T19:00:00Z,26.8015,-97.4706,0.0,14.1,164.0,16.4,'11111222,11111222,11111222' 
TCOON,ioos:station:TCOON:003:1,2008-06-05T20:00:00Z,26.8015,-97.4706,0.0,13.0,164.0,16.0,'11111222,11111222,11111222' 
TCOON,ioos:station:TCOON:003:1,2008-06-05T21:00:00Z,26.8015,-97.4706,0.0,13.0,160.0,16.1,'11111222,11111222,11111222' 
TCOON,ioos:station:TCOON:003:1,2008-06-05T22:00:00Z,26.8015,-97.4706,0.0,13.3,161.0,15.9,'11111222,11111222,11111222' 
TCOON,ioos:station:TCOON:003:1,2008-06-05T23:00:00Z,26.8015,-97.4706,0.0,13.6,154.0,16.4,'11111222,11111222,11111222' 
TCOON,ioos:station:TCOON:003:1,2008-06-06T00:00:00Z,26.8015,-97.4706,0.0,13.2,158.0,15.4,'11111222,11111222,11111222' 
TCOON,ioos:station:TCOON:003:1,2008-06-06T01:00:00Z,26.8015,-97.4706,0.0,13.0,160.0,15.6,'11111222,11111222,11111222' 
TCOON,ioos:station:TCOON:003:1,2008-06-06T02:00:00Z,26.8015,-97.4706,0.0,12.3,156.0,14.7,'11111222,11111222,11111222' 
TCOON,ioos:station:TCOON:003:1,2008-06-06T03:00:00Z,26.8015,-97.4706,0.0,12.1,158.0,14.6,'11111222,11111222,11111222' 
TCOON,ioos:station:TCOON:003:1,2008-06-06T04:00:00Z,26.8015,-97.4706,0.0,11.7,160.0,13.6,'11111222,11111222,11111222' 
TCOON,ioos:station:TCOON:003:1,2008-06-06T05:00:00Z,26.8015,-97.4706,0.0,11.0,161.0,12.8,'11111222,11111222,11111222' 
TCOON,ioos:station:TCOON:003:1,2008-06-06T06:00:00Z,26.8015,-97.4706,0.0,12.4,166.0,14.7,'11111222,11111222,11111222' 
TCOON,ioos:station:TCOON:003:1,2008-06-06T07:00:00Z,26.8015,-97.4706,0.0,11.3,165.0,13.0,'11111222,11111222,11111222' 
TCOON,ioos:station:TCOON:003:1,2008-06-06T08:00:00Z,26.8015,-97.4706,0.0,11.1,161.0,12.6,'11111222,11111222,11111222' 
TCOON,ioos:station:TCOON:003:1,2008-06-06T09:00:00Z,26.8015,-97.4706,0.0,11.5,162.0,13.0,'11111222,11111222,11111222' 
TCOON,ioos:station:TCOON:003:1,2008-06-06T10:00:00Z,26.8015,-97.4706,0.0,10.5,157.0,12.6,'11111222,11111222,11111222' 
TCOON,ioos:station:TCOON:003:1,2008-06-06T11:00:00Z,26.8015,-97.4706,0.0,8.6,154.0,10.1,'11111222,11111222,11111222' 
TCOON,ioos:station:TCOON:003:1,2008-06-06T12:00:00Z,26.8015,-97.4706,0.0,6.8,148.0,8.0,'11111222,11111222,11111222' 
TCOON,ioos:station:TCOON:003:1,2008-06-06T13:00:00Z,26.8015,-97.4706,0.0,9.5,151.0,10.6,'11111222,11111222,11111222' 
TCOON,ioos:station:TCOON:003:1,2008-06-06T14:00:00Z,26.8015,-97.4706,0.0,9.1,153.0,10.5,'11111222,11111222,11111222' 
TCOON,ioos:station:TCOON:003:1,2008-06-06T15:00:00Z,26.8015,-97.4706,0.0,8.7,156.0,10.6,'11111222,11111222,11111222' 
TCOON,ioos:station:TCOON:003:1,2008-06-06T16:00:00Z,26.8015,-97.4706,0.0,9.8,144.0,11.6,'11111222,11111222,11111222' 
TCOON,ioos:station:TCOON:003:1,2008-06-06T17:00:00Z,26.8015,-97.4706,0.0,10.8,144.0,12.6,'11111222,11111222,11111222' 
TCOON,ioos:station:TCOON:003:1,2008-06-06T18:00:00Z,26.8015,-97.4706,0.0,10.0,150.0,12.5,'11111222,11111222,11111222' 
TCOON,ioos:station:TCOON:003:1,2008-06-06T19:00:00Z,26.8015,-97.4706,0.0,12.0,141.0,14.8,'11111222,11111222,11111222' 
TCOON,ioos:station:TCOON:003:1,2008-06-06T20:00:00Z,26.8015,-97.4706,0.0,11.0,154.0,12.9,'11111222,11111222,11111222' 
TCOON,ioos:station:TCOON:003:1,2008-06-06T21:00:00Z,26.8015,-97.4706,0.0,11.6,150.0,13.0,'11111222,11111222,11111222' 
TCOON,ioos:station:TCOON:003:1,2008-06-06T22:00:00Z,26.8015,-97.4706,0.0,11.3,151.0,12.7,'11111222,11111222,11111222' 
TCOON,ioos:station:TCOON:003:1,2008-06-06T23:00:00Z,26.8015,-97.4706,0.0,10.3,144.0,12.2,'11111222,11111222,11111222' 
TCOON,ioos:station:TCOON:003:1,2008-06-07T00:00:00Z,26.8015,-97.4706,0.0,10.2,141.0,12.7,'11111222,11111222,11111222' 
TCOON,ioos:station:TCOON:003:1,2008-06-07T01:00:00Z,26.8015,-97.4706,0.0,9.4,142.0,10.9,'11111222,11111222,11111222' 
TCOON,ioos:station:TCOON:003:1,2008-06-07T02:00:00Z,26.8015,-97.4706,0.0,9.1,139.0,10.6,'11111222,11111222,11111222' 
TCOON,ioos:station:TCOON:003:1,2008-06-07T03:00:00Z,26.8015,-97.4706,0.0,8.7,140.0,10.0,'11111222,11111222,11111222' 
TCOON,ioos:station:TCOON:003:1,2008-06-07T04:00:00Z,26.8015,-97.4706,0.0,8.4,148.0,10.3,'11111222,11111222,11111222' 
TCOON,ioos:station:TCOON:003:1,2008-06-07T05:00:00Z,26.8015,-97.4706,0.0,8.0,146.0,9.9,'11111222,11111222,11111222' 
TCOON,ioos:station:TCOON:003:1,2008-06-07T06:00:00Z,26.8015,-97.4706,0.0,7.8,144.0,9.0,'11111222,11111222,11111222' 
TCOON,ioos:station:TCOON:003:1,2008-06-07T07:00:00Z,26.8015,-97.4706,0.0,6.4,149.0,7.8,'11111222,11111222,11111222' 
TCOON,ioos:station:TCOON:003:1,2008-06-07T08:00:00Z,26.8015,-97.4706,0.0,6.4,149.0,7.4,'11111222,11111222,11111222' 
TCOON,ioos:station:TCOON:003:1,2008-06-07T09:00:00Z,26.8015,-97.4706,0.0,6.8,144.0,8.1,'11111222,11111222,11111222' 
TCOON,ioos:station:TCOON:003:1,2008-06-07T10:00:00Z,26.8015,-97.4706,0.0,6.6,143.0,7.8,'11111222,11111222,11111222' 
TCOON,ioos:station:TCOON:003:1,2008-06-07T11:00:00Z,26.8015,-97.4706,0.0,6.4,136.0,7.7,'11111222,11111222,11111222' 
TCOON,ioos:station:TCOON:003:1,2008-06-07T12:00:00Z,26.8015,-97.4706,0.0,7.5,143.0,9.2,'11111222,11111222,11111222' 
TCOON,ioos:station:TCOON:003:1,2008-06-07T13:00:00Z,26.8015,-97.4706,0.0,8.8,146.0,9.7,'11111222,11111222,11111222' 
TCOON,ioos:station:TCOON:003:1,2008-06-07T14:00:00Z,26.8015,-97.4706,0.0,8.0,147.0,9.1,'11111222,11111222,11111222' 
TCOON,ioos:station:TCOON:003:1,2008-06-07T15:00:00Z,26.8015,-97.4706,0.0,7.7,146.0,8.8,'11111222,11111222,11111222' 
TCOON,ioos:station:TCOON:003:1,2008-06-07T16:00:00Z,26.8015,-97.4706,0.0,6.9,162.0,8.3,'11111222,11111222,11111222' 
TCOON,ioos:station:TCOON:003:1,2008-06-07T17:00:00Z,26.8015,-97.4706,0.0,7.4,152.0,8.4,'11111222,11111222,11111222' 
TCOON,ioos:station:TCOON:003:1,2008-06-07T18:00:00Z,26.8015,-97.4706,0.0,6.2,145.0,7.2,'11111222,11111222,11111222' 
TCOON,ioos:station:TCOON:003:1,2008-06-07T19:00:00Z,26.8015,-97.4706,0.0,7.0,140.0,8.1,'11111222,11111222,11111222' 
TCOON,ioos:station:TCOON:003:1,2008-06-07T20:00:00Z,26.8015,-97.4706,0.0,7.4,144.0,9.1,'11111222,11111222,11111222' 
TCOON,ioos:station:TCOON:003:1,2008-06-07T21:00:00Z,26.8015,-97.4706,0.0,7.7,139.0,8.9,'11111222,11111222,11111222' 
TCOON,ioos:station:TCOON:003:1,2008-06-07T22:00:00Z,26.8015,-97.4706,0.0,7.0,150.0,8.1,'11111222,11111222,11111222' 
TCOON,ioos:station:TCOON:003:1,2008-06-07T23:00:00Z,26.8015,-97.4706,0.0,8.6,142.0,9.9,'11111222,11111222,11111222' 
TCOON,ioos:station:TCOON:003:1,2008-06-08T00:00:00Z,26.8015,-97.4706,0.0,7.9,142.0,8.9,'11111222,11111222,11111222' 
TCOON,ioos:station:TCOON:003:1,2008-06-08T01:00:00Z,26.8015,-97.4706,0.0,7.1,136.0,7.8,'11111222,11111222,11111222' 
TCOON,ioos:station:TCOON:003:1,2008-06-08T02:00:00Z,26.8015,-97.4706,0.0,7.3,144.0,8.2,'11111222,11111222,11111222' 
TCOON,ioos:station:TCOON:003:1,2008-06-08T03:00:00Z,26.8015,-97.4706,0.0,8.5,150.0,10.0,'11111222,11111222,11111222' 
TCOON,ioos:station:TCOON:003:1,2008-06-08T04:00:00Z,26.8015,-97.4706,0.0,8.3,149.0,9.6,'11111222,11111222,11111222' 
TCOON,ioos:station:TCOON:003:1,2008-06-08T05:00:00Z,26.8015,-97.4706,0.0,7.5,152.0,8.8,'11111222,11111222,11111222' 
TCOON,ioos:station:TCOON:003:1,2008-06-08T06:00:00Z,26.8015,-97.4706,0.0,7.1,151.0,8.0,'11111222,11111222,11111222' 
TCOON,ioos:station:TCOON:003:1,2008-06-08T07:00:00Z,26.8015,-97.4706,0.0,7.1,152.0,8.4,'11111222,11111222,11111222' 
TCOON,ioos:station:TCOON:003:1,2008-06-08T08:00:00Z,26.8015,-97.4706,0.0,7.0,149.0,8.0,'11111222,11111222,11111222' 
TCOON,ioos:station:TCOON:003:1,2008-06-08T09:00:00Z,26.8015,-97.4706,0.0,6.6,152.0,7.3,'11111222,11111222,11111222' 
TCOON,ioos:station:TCOON:003:1,2008-06-08T10:00:00Z,26.8015,-97.4706,0.0,6.4,154.0,7.6,'11111222,11111222,11111222' 
TCOON,ioos:station:TCOON:003:1,2008-06-08T11:00:00Z,26.8015,-97.4706,0.0,6.0,151.0,6.8,'11111222,11111222,11111222' 
TCOON,ioos:station:TCOON:003:1,2008-06-08T12:00:00Z,26.8015,-97.4706,0.0,5.0,152.0,5.9,'11111222,11111222,11111222' 
TCOON,ioos:station:TCOON:003:1,2008-06-08T13:00:00Z,26.8015,-97.4706,0.0,7.5,159.0,8.3,'11111222,11111222,11111222' 
TCOON,ioos:station:TCOON:003:1,2008-06-08T14:00:00Z,26.8015,-97.4706,0.0,7.9,160.0,9.2,'11111222,11111222,11111222' 
TCOON,ioos:station:TCOON:003:1,2008-06-08T15:00:00Z,26.8015,-97.4706,0.0,8.3,151.0,9.6,'11111222,11111222,11111222' 
TCOON,ioos:station:TCOON:003:1,2008-06-08T16:00:00Z,26.8015,-97.4706,0.0,10.0,154.0,11.2,'11111222,11111222,11111222' 
TCOON,ioos:station:TCOON:003:1,2008-06-08T17:00:00Z,26.8015,-97.4706,0.0,9.2,147.0,11.5,'11111222,11111222,11111222' 
TCOON,ioos:station:TCOON:003:1,2008-06-08T18:00:00Z,26.8015,-97.4706,0.0,9.9,145.0,12.6,'11111222,11111222,11111222' 
TCOON,ioos:station:TCOON:003:1,2008-06-08T19:00:00Z,26.8015,-97.4706,0.0,9.9,144.0,11.9,'11111222,11111222,11111222' 
TCOON,ioos:station:TCOON:003:1,2008-06-08T20:00:00Z,26.8015,-97.4706,0.0,9.9,152.0,12.4,'11111222,11111222,11111222' 
TCOON,ioos:station:TCOON:003:1,2008-06-08T21:00:00Z,26.8015,-97.4706,0.0,10.7,139.0,12.3,'11111222,11111222,11111222' 
TCOON,ioos:station:TCOON:003:1,2008-06-08T22:00:00Z,26.8015,-97.4706,0.0,10.9,145.0,13.7,'11111222,11111222,11111222' 
TCOON,ioos:station:TCOON:003:1,2008-06-08T23:00:00Z,26.8015,-97.4706,0.0,10.6,141.0,13.2,'11111222,11111222,11111222' 
TCOON,ioos:station:TCOON:003:1,2008-06-09T00:00:00Z,26.8015,-97.4706,0.0,10.6,147.0,12.4,'11111222,11111222,11111222' 
TCOON,ioos:station:TCOON:003:1,2008-06-09T01:00:00Z,26.8015,-97.4706,0.0,10.4,149.0,11.7,'11111222,11111222,11111222' 
TCOON,ioos:station:TCOON:003:1,2008-06-09T02:00:00Z,26.8015,-97.4706,0.0,9.4,153.0,11.1,'11111222,11111222,11111222' 
TCOON,ioos:station:TCOON:003:1,2008-06-09T03:00:00Z,26.8015,-97.4706,0.0,8.8,160.0,10.8,'11111222,11111222,11111222' 
TCOON,ioos:station:TCOON:003:1,2008-06-09T04:00:00Z,26.8015,-97.4706,0.0,9.2,162.0,10.4,'11111222,11111222,11111222' 
TCOON,ioos:station:TCOON:003:1,2008-06-09T05:00:00Z,26.8015,-97.4706,0.0,9.2,161.0,11.0,'11111222,11111222,11111222' 
TCOON,ioos:station:TCOON:003:1,2008-06-09T06:00:00Z,26.8015,-97.4706,0.0,8.9,161.0,10.1,'11111222,11111222,11111222' 
TCOON,ioos:station:TCOON:003:1,2008-06-09T07:00:00Z,26.8015,-97.4706,0.0,7.7,157.0,9.1,'11111222,11111222,11111222' 
TCOON,ioos:station:TCOON:003:1,2008-06-09T08:00:00Z,26.8015,-97.4706,0.0,6.9,159.0,8.2,'11111222,11111222,11111222' 
TCOON,ioos:station:TCOON:003:1,2008-06-09T09:00:00Z,26.8015,-97.4706,0.0,7.0,161.0,8.5,'11111222,11111222,11111222' 